CGZ661 ZSAM-VHHH

Flight info

Callsign CGZ661
Flight time N/A
Altitude 25600
Route NUSPA7Y NUSPA W597 IKATA A470 BEBEM/N0359F256 A470 DOTMI/N0350F240 V512 ABBEY
Aircraft E190/M-SDE3GILORVW/S

Departure

Time N/A
Airport Xiamen Gaoqi International Airport (ZSAM)

Arrival

Time 2026-05-07 11:28
Airport Hong Kong International Airport (VHHH)
Time Latitude Longitude Altitude Speed Heading
2026-05-07 10:56 22.67843 116.13575 25629 ft 395 kts 220°
2026-05-07 10:56 22.65629 116.11769 25622 ft 395 kts 220°
2026-05-07 10:57 22.63431 116.09978 25621 ft 395 kts 220°
2026-05-07 10:57 22.61232 116.08188 25626 ft 395 kts 220°
2026-05-07 10:57 22.59041 116.06402 25628 ft 395 kts 220°
2026-05-07 10:57 22.56839 116.04610 25395 ft 398 kts 220°
2026-05-07 10:58 22.54640 116.02817 25165 ft 404 kts 220°
2026-05-07 10:58 22.53661 116.02023 25136 ft 406 kts 220°
2026-05-07 10:58 22.51553 116.00308 25077 ft 406 kts 220°
2026-05-07 10:58 22.49288 115.98468 25045 ft 406 kts 220°
2026-05-07 10:59 22.47035 115.96635 25033 ft 406 kts 220°
2026-05-07 10:59 22.44772 115.94797 25030 ft 407 kts 220°
2026-05-07 10:59 22.42503 115.92955 25041 ft 407 kts 220°
2026-05-07 10:59 22.40233 115.91112 25036 ft 407 kts 220°
2026-05-07 11:00 22.37970 115.89276 25031 ft 407 kts 220°
2026-05-07 11:00 22.35704 115.87438 25034 ft 407 kts 220°
2026-05-07 11:00 22.33439 115.85602 25038 ft 407 kts 220°
2026-05-07 11:00 22.31287 115.83625 25038 ft 404 kts 229°
2026-05-07 11:01 22.29753 115.81134 25026 ft 398 kts 249°
2026-05-07 11:01 22.29162 115.78245 25036 ft 395 kts 269°
2026-05-07 11:01 22.29241 115.75279 25053 ft 395 kts 274°
2026-05-07 11:01 22.29328 115.72314 25046 ft 395 kts 269°
2026-05-07 11:02 22.29262 115.69348 25044 ft 395 kts 270°
2026-05-07 11:02 22.29191 115.66384 25030 ft 395 kts 269°
2026-05-07 11:02 22.29111 115.63414 25036 ft 395 kts 269°
2026-05-07 11:02 22.29028 115.60450 24624 ft 393 kts 269°
2026-05-07 11:03 22.28946 115.57549 23873 ft 391 kts 269°
2026-05-07 11:03 22.28863 115.54566 22375 ft 400 kts 268°
2026-05-07 11:03 22.28778 115.51584 21332 ft 401 kts 268°
2026-05-07 11:03 22.28694 115.48593 20454 ft 395 kts 268°
2026-05-07 11:04 22.28612 115.45649 19593 ft 390 kts 268°
2026-05-07 11:04 22.28528 115.42744 18781 ft 385 kts 268°
2026-05-07 11:04 22.28448 115.39880 17906 ft 380 kts 269°
2026-05-07 11:04 22.28630 115.37047 16956 ft 377 kts 277°
2026-05-07 11:05 22.29037 115.34269 16104 ft 372 kts 279°
2026-05-07 11:05 22.29489 115.31542 15288 ft 367 kts 279°
2026-05-07 11:05 22.29758 115.29709 14739 ft 363 kts 276°
2026-05-07 11:05 22.30012 115.27010 13943 ft 360 kts 276°
2026-05-07 11:06 22.30334 115.23480 12816 ft 355 kts 275°
2026-05-07 11:06 22.30563 115.20847 12011 ft 350 kts 275°
2026-05-07 11:06 22.30709 115.19117 11489 ft 348 kts 275°
2026-05-07 11:06 22.30929 115.16562 11232 ft 340 kts 275°
2026-05-07 11:07 22.31091 115.13988 11118 ft 346 kts 268°
2026-05-07 11:07 22.30684 115.11438 11062 ft 346 kts 254°
2026-05-07 11:07 22.29868 115.08993 11038 ft 346 kts 249°
2026-05-07 11:07 22.28943 115.06595 11032 ft 346 kts 247°
2026-05-07 11:08 22.27984 115.04210 11028 ft 346 kts 247°
2026-05-07 11:08 22.27016 115.01839 11030 ft 346 kts 246°
2026-05-07 11:08 22.26037 114.99455 11032 ft 347 kts 246°
2026-05-07 11:08 22.25057 114.97075 11034 ft 347 kts 246°
2026-05-07 11:09 22.24081 114.94701 11025 ft 347 kts 246°
2026-05-07 11:09 22.23099 114.92317 11025 ft 347 kts 246°
2026-05-07 11:09 22.22121 114.89940 11030 ft 347 kts 246°
2026-05-07 11:09 22.21149 114.87569 11028 ft 347 kts 247°
2026-05-07 11:10 22.20358 114.85116 11029 ft 346 kts 254°
2026-05-07 11:10 22.19726 114.82614 11032 ft 346 kts 255°
2026-05-07 11:10 22.19136 114.80086 11030 ft 347 kts 256°
2026-05-07 11:10 22.18565 114.77565 11027 ft 346 kts 256°
2026-05-07 11:11 22.18001 114.75041 11029 ft 346 kts 256°
2026-05-07 11:11 22.17441 114.72517 11030 ft 346 kts 256°
2026-05-07 11:11 22.16881 114.69988 11030 ft 346 kts 256°
2026-05-07 11:11 22.16322 114.67460 11025 ft 346 kts 256°
2026-05-07 11:12 22.15765 114.64935 11024 ft 347 kts 256°
2026-05-07 11:12 22.15207 114.62405 11025 ft 346 kts 257°
2026-05-07 11:12 22.14648 114.59865 11022 ft 346 kts 256°
2026-05-07 11:12 22.14091 114.57339 11020 ft 347 kts 256°
2026-05-07 11:13 22.13534 114.54808 11026 ft 346 kts 257°
2026-05-07 11:13 22.12981 114.52286 11022 ft 347 kts 257°
2026-05-07 11:13 22.12432 114.49786 10920 ft 344 kts 256°
2026-05-07 11:13 22.11884 114.47279 10091 ft 344 kts 256°
2026-05-07 11:14 22.11349 114.44807 9630 ft 332 kts 257°
2026-05-07 11:14 22.10835 114.42416 9157 ft 321 kts 257°
2026-05-07 11:14 22.10328 114.40067 8556 ft 316 kts 257°
2026-05-07 11:14 22.09917 114.37757 7929 ft 313 kts 263°
2026-05-07 11:15 22.09717 114.35461 7321 ft 311 kts 266°
2026-05-07 11:15 22.09612 114.33108 6716 ft 308 kts 267°
2026-05-07 11:15 22.09523 114.30842 6263 ft 306 kts 268°
2026-05-07 11:15 22.09435 114.28523 6139 ft 308 kts 268°
2026-05-07 11:16 22.09349 114.26229 6070 ft 304 kts 268°
2026-05-07 11:16 22.09263 114.23947 6031 ft 304 kts 268°
2026-05-07 11:16 22.09190 114.21668 5930 ft 304 kts 268°
2026-05-07 11:16 22.09108 114.19385 5244 ft 307 kts 268°
2026-05-07 11:17 22.09022 114.17143 4829 ft 284 kts 268°
2026-05-07 11:17 22.08940 114.15104 4581 ft 259 kts 268°
2026-05-07 11:17 22.08865 114.13245 4150 ft 242 kts 268°
2026-05-07 11:17 22.08798 114.11468 3596 ft 235 kts 268°
2026-05-07 11:18 22.08748 114.09698 3135 ft 244 kts 268°
2026-05-07 11:18 22.08713 114.07812 3086 ft 253 kts 269°
2026-05-07 11:18 22.08681 114.05921 3052 ft 252 kts 266°
2026-05-07 11:18 22.08401 114.04052 2989 ft 249 kts 251°
2026-05-07 11:19 22.07861 114.02265 2959 ft 252 kts 255°
2026-05-07 11:19 22.07600 114.00391 2844 ft 254 kts 267°
2026-05-07 11:19 22.07686 113.98483 2743 ft 254 kts 275°
2026-05-07 11:19 22.07906 113.96607 2916 ft 257 kts 276°
2026-05-07 11:20 22.08123 113.94707 2846 ft 253 kts 275°
2026-05-07 11:20 22.08296 113.92801 2881 ft 254 kts 274°
2026-05-07 11:20 22.08442 113.90900 2914 ft 254 kts 273°
2026-05-07 11:20 22.08555 113.89091 2882 ft 236 kts 271°
2026-05-07 11:21 22.08665 113.87341 2725 ft 232 kts 273°
2026-05-07 11:21 22.08779 113.85597 2924 ft 236 kts 272°
2026-05-07 11:21 22.08904 113.83842 2940 ft 235 kts 275°
2026-05-07 11:21 22.09102 113.82101 3003 ft 235 kts 278°
2026-05-07 11:22 22.09460 113.80378 3020 ft 237 kts 285°
2026-05-07 11:22 22.10271 113.78849 3020 ft 238 kts 317°
2026-05-07 11:22 22.11697 113.77955 3049 ft 235 kts 336°
2026-05-07 11:22 22.13178 113.77449 3028 ft 216 kts 342°
2026-05-07 11:23 22.14637 113.76964 2871 ft 220 kts 341°
2026-05-07 11:23 22.16080 113.76470 2860 ft 218 kts 341°
2026-05-07 11:23 22.17522 113.75929 2867 ft 218 kts 339°
2026-05-07 11:23 22.18931 113.75333 2846 ft 218 kts 337°
2026-05-07 11:24 22.20329 113.74706 2866 ft 218 kts 335°
2026-05-07 11:24 22.21719 113.74044 3032 ft 213 kts 334°
2026-05-07 11:24 22.23149 113.73449 2958 ft 224 kts 348°
2026-05-07 11:24 22.24664 113.73417 2753 ft 217 kts
2026-05-07 11:25 22.26066 113.73996 3020 ft 220 kts 34°
2026-05-07 11:25 22.27179 113.75056 2870 ft 205 kts 53°
2026-05-07 11:25 22.27948 113.76284 2943 ft 193 kts 58°
2026-05-07 11:25 22.28657 113.77552 2838 ft 200 kts 65°
2026-05-07 11:26 22.29176 113.78894 2472 ft 186 kts 73°
2026-05-07 11:26 22.29571 113.80204 1866 ft 187 kts 73°
2026-05-07 11:26 22.30023 113.81516 1303 ft 184 kts 72°
2026-05-07 11:26 22.30429 113.82766 1013 ft 164 kts 74°
2026-05-07 11:27 22.30772 113.83858 866 ft 145 kts 71°
2026-05-07 11:27 22.31125 113.84965 881 ft 149 kts 75°
2026-05-07 11:27 22.31455 113.86017 619 ft 145 kts 72°
2026-05-07 11:27 22.31781 113.87038 364 ft 142 kts 76°
2026-05-07 11:28 22.32105 113.88039 111 ft 139 kts 73°
2026-05-07 11:28 22.32397 113.88964 33 ft 111 kts 72°
2026-05-07 11:28 22.32595 113.89569 35 ft 68 kts 71°
2026-05-07 11:28 22.32698 113.89942 35 ft 47 kts 82°
2026-05-07 11:29 22.32690 113.90153 34 ft 20 kts 101°
2026-05-07 11:29 22.32688 113.90167 34 ft 0 kts 101°
2026-05-07 11:29 22.32688 113.90168 34 ft 0 kts 101°
2026-05-07 11:29 22.32686 113.90181 34 ft 4 kts 101°
2026-05-07 11:30 22.32628 113.90278 34 ft 11 kts 170°
2026-05-07 11:30 22.32558 113.90297 34 ft 10 kts 161°
2026-05-07 11:30 22.32499 113.90318 34 ft 9 kts 160°
2026-05-07 11:30 22.32419 113.90349 34 ft 16 kts 160°
2026-05-07 11:31 22.32295 113.90395 34 ft 20 kts 161°
2026-05-07 11:31 22.32171 113.90442 34 ft 18 kts 160°
2026-05-07 11:31 22.32054 113.90488 34 ft 17 kts 160°
2026-05-07 11:31 22.31944 113.90528 34 ft 16 kts 161°
2026-05-07 11:32 22.31747 113.90603 34 ft 5 kts 160°
2026-05-07 11:32 22.31738 113.90607 34 ft 0 kts 160°
2026-05-07 11:33 22.31737 113.90607 34 ft 1 kts 160°
2026-05-07 11:33 22.31677 113.90629 34 ft 12 kts 155°
2026-05-07 11:33 22.31662 113.90701 33 ft 10 kts 70°
2026-05-07 11:34 22.31685 113.90774 34 ft 11 kts 73°
2026-05-07 11:34 22.31722 113.90898 32 ft 22 kts 71°
2026-05-07 11:34 22.31771 113.91046 34 ft 20 kts 70°
2026-05-07 11:34 22.31816 113.91186 34 ft 19 kts 71°
2026-05-07 11:35 22.31856 113.91316 34 ft 18 kts 72°
2026-05-07 11:35 22.31893 113.91443 32 ft 17 kts 72°
2026-05-07 11:35 22.31932 113.91556 33 ft 18 kts 66°
2026-05-07 11:35 22.31987 113.91717 34 ft 27 kts 72°
2026-05-07 11:36 22.32045 113.91899 34 ft 25 kts 71°
2026-05-07 11:36 22.32099 113.92066 33 ft 23 kts 71°
2026-05-07 11:36 22.32153 113.92232 34 ft 27 kts 72°
2026-05-07 11:36 22.32215 113.92425 34 ft 26 kts 72°
2026-05-07 11:37 22.32274 113.92604 34 ft 24 kts 70°
2026-05-07 11:37 22.32253 113.92658 34 ft 6 kts 155°
2026-05-07 11:37 22.32191 113.92684 34 ft 10 kts 159°
2026-05-07 11:37 22.32156 113.92697 34 ft 0 kts 162°
2026-05-07 11:38 22.32144 113.92701 34 ft 8 kts 162°
2026-05-07 11:38 22.32017 113.92748 34 ft 24 kts 161°
2026-05-07 11:39 22.31978 113.92762 34 ft 2 kts 160°
2026-05-07 11:39 22.31968 113.92766 34 ft 0 kts 160°
2026-05-07 11:40 22.31966 113.92767 34 ft 2 kts 160°
2026-05-07 11:40 22.31949 113.92773 34 ft 0 kts 161°
2026-05-07 11:43 22.31908 113.92789 34 ft 13 kts 158°
2026-05-07 11:43 22.31826 113.92826 34 ft 12 kts 157°
2026-05-07 11:43 22.31749 113.92862 34 ft 13 kts 159°
2026-05-07 11:44 22.31654 113.92899 34 ft 15 kts 160°
2026-05-07 11:44 22.31562 113.92928 34 ft 13 kts 178°
2026-05-07 11:44 22.31512 113.92867 34 ft 11 kts 247°
2026-05-07 11:44 22.31501 113.92837 34 ft 0 kts 249°
2026-05-07 11:45 22.31492 113.92833 34 ft 9 kts 202°
2026-05-07 11:45 22.31444 113.92848 34 ft 0 kts 160°
2026-05-07 11:45 22.31400 113.92865 34 ft 1 kts 160°